Date,TemperatureHighF,TemperatureAvgF,TemperatureLowF,DewpointHighF,DewpointAvgF,DewpointLowF,HumidityHigh,HumidityAvg,HumidityLow,PressureMaxIn,PressureMinIn,WindSpeedMaxMPH,WindSpeedAvgMPH,GustSpeedMaxMPH,PrecipitationSumIn
2013-2-1,54.9,44.4,32.5,34.0,23.4,7.0,69,46,18,30.38,30.10,18,3,24,0.00
2013-2-2,50.3,38.9,27.6,42.0,27.7,13.0,96,65,46,30.41,30.08,7,2,10,0.00
2013-2-3,58.3,46.7,37.1,40.0,35.2,32.0,94,67,39,30.07,29.89,14,3,21,0.00
2013-2-4,49.4,40.5,28.8,37.0,32.3,27.0,95,74,48,30.16,30.03,4,0,6,0.00
2013-2-5,67.3,52.2,36.5,49.0,41.3,35.0,96,71,35,30.07,29.94,6,1,15,0.00
2013-2-6,70.2,55.3,45.2,51.0,45.9,41.0,96,75,35,30.23,30.01,6,1,10,0.00
2013-2-7,61.0,51.6,43.5,55.0,49.6,43.0,97,93,71,30.21,29.73,12,3,19,1.00
2013-2-8,62.7,55.2,48.5,55.0,49.3,46.0,97,82,61,30.04,29.67,12,4,17,0.10
2013-2-9,59.3,46.7,35.3,47.0,32.5,23.0,95,63,28,30.36,30.05,9,3,21,0.00
2013-2-10,59.7,47.3,33.0,55.0,41.9,32.0,96,82,57,30.45,30.23,8,2,12,0.00
2013-2-11,66.4,61.3,54.4,64.0,59.8,53.0,97,94,88,30.27,30.02,6,2,14,0.69
2013-2-12,63.4,57.4,49.8,59.0,54.7,48.0,98,91,64,30.12,29.92,4,1,13,0.79
2013-2-13,66.2,54.7,48.4,62.0,51.8,47.0,98,90,69,29.94,29.68,11,2,18,0.23
2013-2-14,54.1,48.1,40.4,50.0,41.0,37.0,96,78,57,30.09,29.84,8,1,11,0.00
2013-2-15,59.9,45.9,34.3,45.0,39.3,34.0,98,81,49,30.11,29.98,7,1,10,0.00
2013-2-16,53.6,40.9,33.1,44.0,38.1,32.0,98,90,67,29.98,29.80,14,3,24,0.16
2013-2-17,40.7,33.6,26.8,32.0,24.4,19.0,94,72,42,30.31,29.99,19,4,26,0.05
2013-2-18,51.2,35.1,24.3,33.0,27.6,23.0,95,77,36,30.45,30.30,4,1,8,0.01
2013-2-19,62.4,49.6,33.0,56.0,46.3,31.0,96,89,63,30.30,29.96,5,2,14,0.09
2013-2-20,55.9,46.9,34.9,48.0,36.3,24.0,97,70,31,30.16,30.02,7,1,10,0.01
2013-2-21,60.4,45.1,36.0,43.0,33.8,24.0,96,68,33,30.22,30.10,7,1,9,0.00
2013-2-22,51.7,47.3,42.7,50.0,43.8,31.0,97,88,59,30.27,30.08,12,3,16,0.16
2013-2-23,49.2,45.7,42.9,49.0,45.1,42.0,98,98,97,30.07,29.77,6,2,12,0.58
2013-2-24,66.0,52.2,45.1,51.0,47.2,43.0,98,86,44,30.02,29.77,10,2,14,0.01
2013-2-25,46.0,44.1,41.8,44.0,38.5,36.0,98,81,69,30.16,29.98,11,3,17,0.01
2013-2-26,70.4,58.3,42.3,67.0,56.8,41.0,99,94,84,30.04,29.57,14,4,21,1.36
2013-2-27,59.1,52.9,47.8,56.0,44.0,39.0,95,73,55,29.86,29.68,13,3,17,0.00
2013-2-28,57.9,50.2,41.0,43.0,37.9,33.0,89,65,40,29.87,29.75,13,3,23,0.00